EHI
0 0 0 0 0 0 0 0 0 0 0 0 0 0 0 0 0 0 0 0 0 0 0 0 0 0 0 0 0 0 0 0 0 0 0 0 0 0 0 0 0 0 0 0
0 0 0 0 0 0 0 0 0 0 0 0 0 0 0 0 0 0 0 0 0 0 0 0 0 0 0 0 0 0 0 0 0 0 0 0 0 0 0 0 0 0 0 0
0 0 0 0 0 0 0 0 0 0 0 0 0 0 0 0 0 0 0 0 0 0 0 0 0 0 0 0 0 0 0 0 0 0 0 0 0 0 0 0 0 0 0 0
0 0 0 0 0 0 0 0 0 0 0 0 0 0 0 0 0 0 0 0 0 0 0 0 0 0 0 0 0 0 0 0 0 0 0 0 0 0 0 0 0 0 0 0
0 0 0 0 0 0 0 0 0 0 0 0 0 0 0 0 0 0 0 0 0 0 0 0 0 0 0 0 0 0 0 0 0 0 0 0 0 0 0 0 0 0 0 0
0 0 0 0 0 0 0 0 0 0 0 0 0 0 0 0 0 0 0 0 0 0 0 0 0 0 0 0 0 0 0 0 0 0 0 0 0 0 0 0 0 0 0 0
0 0 0 0 0 0 0 0 0 0 0 0 0 0 0 0 0 0 0 0 0 0 0 0 0 0 0 0 0 0 0 0 0 0 0 0 0 0 0 0 0 0 0 0
0 0 0 0 0 0 0 0 0 0 0 0 0 0 0 0 0 0 0 0 0 0 0 0 0 0 0 0 0 0 0 0 0 0 0 0 0 0 0 0 0 0 0 0
0 0 0 0 0 0 0 0 0 0 0 0 0 0 0 0 0 0 0 0 0 0 0 0 0 0 0 0 0 0 0 0 0 0 0 0 0 0 0 0 0 0 0 0
0 0 0 0 0 0 0 0 0 0 0 0 0 0 0 0 0 0 0 0 0 0 0 0 0 0 0 0 0 0 0 0 0 0 0 0 0 0 0 0 0 0 0 0
0 0 0 0 0 0 0 0 0 0 0 0 0 0 0 0 0 0 0 0 0 0 0 0 0 0 0 0 0 0 0 0 0 0 0 0 0 0 0 0 0 0 0 0
0 0 0 0 0 0 0 0 0 0 0 0 0 0 0 0 0 0 0 0 0 0 0 0 0 0 0 0 0 0 0 0 0 0 0 0 0 0 0 0 0 0 0 0
0 0 0 0 0 0 0 0 0 0 0 0 0 0 0 0 0 0 0 0 0 0 0 0 0 0 0 0 0 0 0 0 0 0 0 0 0 0 0 0 0 0 0 0
0 0 0 0 0 0 0 0 0 0 0 0 0 0 0 0 0 0 0 0 0 0 0 0 0 0 0 0 0 0 0 0 0 0 0 0 0 0 0 0 0 0 0 0
0 0 0 0 0 0 0 0 0 0 0 0 0 0 0 0 0 0 0 0 0 0 0 0 0 0 0 0 0 0 0 0 0 0 0 0 0 0 0 0 0 0 0 0
0 0 0 0 0 0 0 0 0 0 0 0 0 0 0 0 0 0 0 0 0 0 0 0 0 0 0 0 0 0 0 0 0 0 0 0 0 0 0 0 0 0 0 0
0 0 0 0 0 0 0 0 0 0 0 0 0 0 0 0 0 0 0 0 0 0 0 0 0 0 0 0 0 0 0 0 0 0 0 0 0 0 0 0 0 0 0 0
0 0 0 0 0 0 0 0 0 0 0 0 0 0 0 0 0 0 0 0 0 0 0 0 0 0 0 0 0 0 0 0 0 0 0 0 0 0 0 0 0 0 0 0
0 0 0 0 0 0 0 0 0 0 0 0 0 0 0 0 0 0 0 0 0 0 0 0 0 0 0 0 0 0 0 0 0 0 0 0 0 0 0 0 0 0 0 0
0 0 0 0 0 0 0 0 0 0 0 0 0 0 0 0 0 0 0 0 0 0 0 0 0 0 0 0 0 0 0 0 0 0 0 0 0 0 0 0 0 0 0 0
0 0 0 0 0 0 0 0 0 0 0 0 0 0 0 0 0 0 0 0 0 0 0 0 0 0 0 0 0 0 0 0 0 0 0 0 0 0 0 0 0 0 0 0
0 0 0 0 0 0 0 0 0 0 0 0 0 0 0 0 0 0 0 0 0 0 0 0 0 0 0 0 0 0 0 0 0 0 0 0 0 0 0 0 0 0 0 0
0 0 0 0 0 0 0 0 0 0 0 0 0 0 0 0 0 0 0 0 0 0 0 0 0 0 0 0 0 0 0 0 0 0 0 0 0 0 0 0 0 0 0 0
0 0 0 0 0 0 0 0 0 0 0 0 0 0 0 0 0 0 0 0 0 0 0 0 0 0 0 0 0 0 0 0 0 0 0 0 0 0 0 0 0 0 0 0
0 0 0 0 0 0 0 0 0 0 0 0 0 0 0 0 0 0 0 0 0 0 0 0 0 0 0 0 0 0 0 0 0 0 0 0 0 0 0 0 0 0 0 0
0 0 0 0 0 0 0 0 0 0 0 0 0 0 0 0 0 0 0 0 0 0 0 0 0 0 0 0 0 0 0 0 0 0 0 0 0 0 0 0 0 0 0 0
0 0 0 0 0 0 0 0 0 0 0 0 0 0 0 0 0 0 0 0 0 0 0 0 0 0 0 0 0 0 0 0 0 0 0 0 0 0 0 0 0 0 0 0
Wind_Speed
5 5 4 4 5 4 5 5 6 6 5 7 4 2 2 2 2 3 5 6 6 6 7 7 8 9 9 9 9 8 9 9 8 7 7 6 6 5 4 4 3 2 1 1
4 3 3 5 6 5 5 4 5 4 7 4 2 0 1 1 1 2 3 4 5 6 6 7 7 7 8 8 8 7 8 8 7 7 7 7 6 5 5 5 4 3 2 1
4 5 4 6 6 6 4 5 6 6 6 1 1 2 3 3 1 1 2 2 3 4 4 5 5 5 6 6 6 7 7 7 7 7 7 7 6 6 5 5 4 3 2 2
3 4 4 5 1 4 4 5 6 5 4 3 3 2 2 2 3 2 2 2 2 2 3 4 4 5 5 5 6 7 7 7 8 8 7 7 7 6 6 4 4 3 3 2
0 3 8 6 1 3 2 5 4 5 4 1 1 2 2 2 2 3 3 2 1 1 2 2 3 4 4 5 6 6 7 7 7 7 7 7 7 7 6 5 5 4 4 3
1 2 6 5 1 1 2 5 3 4 4 3 3 0 4 2 1 1 1 1 0 1 2 2 3 3 4 5 6 6 6 7 6 6 6 6 6 6 5 4 4 4 3 3
3 4 9 6 1 2 1 6 2 4 4 5 5 5 3 1 1 1 0 1 1 1 1 2 3 3 4 4 5 5 6 6 6 6 6 5 5 5 5 4 4 3 3 3
4 4 9 2 4 5 7 3 2 3 4 4 3 2 2 2 2 1 0 0 1 1 1 2 2 3 3 4 5 5 5 5 5 6 5 5 5 5 4 4 4 4 4 4
8 9 5 3 5 4 2 3 3 3 3 4 3 3 2 2 2 2 1 1 0 0 1 2 1 1 2 4 4 4 4 5 5 5 5 4 4 5 4 4 4 4 4 4
6 9 6 6 6 4 4 4 4 3 3 4 4 3 3 2 2 1 1 1 1 1 1 2 2 2 3 4 4 4 4 5 5 5 5 5 4 4 4 4 4 4 4 4
7 8 7 5 5 5 4 3 2 2 3 4 5 4 4 3 3 2 1 1 1 1 2 3 3 3 3 3 3 4 4 4 5 5 5 5 5 4 4 3 4 5 4 4
8 6 5 6 4 2 3 4 4 3 3 3 4 5 4 3 3 2 2 1 1 2 2 3 2 3 3 2 2 3 4 4 4 4 4 4 4 5 7 6 8 8 7 6
6 3 5 6 4 3 3 4 4 4 5 4 3 3 3 3 2 2 2 2 3 3 3 2 2 2 2 2 2 3 3 4 3 3 4 4 4 4 5 7 7 7 7 8
6 3 5 4 4 3 3 3 2 2 2 3 3 3 3 2 2 3 4 4 3 2 2 2 2 3 3 2 2 3 4 4 4 3 4 4 4 4 4 5 5 5 6 8
6 6 6 5 3 3 2 1 2 2 2 2 2 3 3 3 4 4 3 2 1 2 2 2 2 3 3 2 2 3 3 3 3 3 3 3 3 3 3 4 4 4 4 5
5 4 4 5 5 4 3 3 4 5 4 3 3 3 4 3 3 2 2 2 2 3 3 3 3 3 2 2 3 3 3 5 4 3 3 3 3 3 3 3 4 4 4 5
4 5 5 5 6 6 6 6 6 5 4 5 5 3 3 2 2 2 3 2 3 3 3 3 4 3 2 2 3 2 2 3 5 3 3 3 3 3 3 3 3 4 4 5
8 8 7 7 7 7 6 5 5 5 5 5 3 3 4 4 5 4 3 2 2 3 3 3 3 3 2 3 2 2 2 2 3 3 3 3 3 2 3 3 3 3 3 4
6 6 6 6 6 5 5 5 5 4 4 4 4 5 5 5 4 3 3 3 3 4 4 3 4 2 3 3 2 2 2 3 3 3 3 4 3 2 2 3 3 3 3 3
4 4 4 4 3 4 4 3 3 3 3 4 4 4 4 4 3 3 3 4 5 4 4 3 3 3 3 3 3 2 2 3 3 3 2 2 2 3 2 3 3 3 3 2
4 4 3 3 3 3 3 3 3 4 3 4 5 5 5 4 3 3 3 4 4 3 3 4 2 3 3 3 3 2 2 3 3 3 3 3 3 3 3 3 3 3 3 3
3 3 3 3 3 3 2 2 3 3 3 4 4 4 3 4 4 4 5 5 3 4 2 2 2 4 4 3 2 2 2 3 3 3 3 3 3 3 3 3 3 3 3 3
3 3 4 4 3 3 2 2 3 4 4 5 5 5 5 4 4 4 4 3 3 5 3 3 4 6 5 2 2 2 3 3 3 3 3 3 3 3 3 3 3 3 3 3
4 4 3 3 2 2 3 3 3 3 3 4 4 5 4 3 3 3 3 4 5 5 3 4 5 6 4 2 2 3 3 3 3 3 3 3 3 3 3 3 3 3 3 3
4 3 3 3 4 4 4 3 2 2 3 2 3 3 3 3 3 3 2 3 5 4 2 4 5 5 2 2 2 3 3 3 4 3 3 3 3 3 3 3 3 3 3 3
4 4 4 5 4 3 3 3 3 3 3 3 3 2 2 2 2 2 2 3 4 4 2 2 2 2 2 2 3 3 3 3 4 3 3 3 3 3 3 3 4 4 3 4
4 3 3 3 3 3 3 3 4 4 4 4 3 3 3 2 2 2 3 2 2 2 2 2 2 2 2 2 3 3 3 3 3 3 3 3 3 3 3 4 4 4 3 4
Wind_Direction
256 261 250 252 256 232 207 209 220 247 253 268 266 258 278 319 353 11 12 14 13 11 10 13 15 13 14 13 12 16 23 23 18 15 19 22 21 17 12 10 355 323 298 297
300 296 274 268 259 241 231 221 231 255 271 264 240 212 281 295 336 354 357 1 2 6 8 8 10 8 8 7 5 13 22 18 11 13 14 14 15 13 12 9 360 356 355 343
293 311 329 282 244 208 218 211 192 219 241 215 251 237 225 223 225 277 320 337 349 352 353 357 359 0 3 360 1 12 16 13 10 9 10 6 4 5 4 1 357 356 356 358
304 348 278 253 239 190 216 247 222 234 240 219 238 253 249 208 199 229 261 296 320 338 345 349 351 355 356 2 9 12 12 8 3 2 1 358 0 358 354 351 349 351 351 345
358 307 286 296 242 179 201 280 226 218 234 202 89 11 309 231 202 213 217 229 254 301 334 348 350 347 358 8 11 12 6 359 355 354 351 351 352 347 344 346 347 347 346 344
153 276 262 270 262 179 100 292 251 194 198 169 118 337 268 236 193 210 210 190 180 10 14 6 343 348 15 10 8 1 350 343 342 344 343 338 335 334 335 337 335 337 339 337
199 247 267 261 224 114 160 263 266 188 187 175 192 216 235 177 191 184 195 162 106 69 12 331 339 4 14 3 350 337 335 336 339 338 333 329 330 332 334 335 338 340 335 331
178 220 260 223 137 186 229 270 223 195 189 192 217 233 197 181 177 149 101 59 75 58 337 328 352 13 358 335 326 332 333 335 332 331 332 334 331 331 335 334 337 342 344 337
201 223 252 213 217 245 229 243 238 210 211 187 197 219 214 196 179 169 166 178 139 229 305 320 338 356 318 311 322 327 330 331 328 330 332 331 332 336 340 341 340 339 338 331
265 266 262 256 256 268 245 242 244 224 204 187 200 208 207 202 197 192 184 191 195 213 284 303 307 310 296 309 321 325 327 329 332 336 337 337 336 336 335 333 329 326 325 321
263 279 298 281 247 250 257 251 240 233 206 198 191 205 205 207 209 208 212 209 203 223 253 274 287 295 307 313 323 324 324 329 331 331 329 329 327 322 320 307 311 312 307 306
234 239 231 268 280 239 233 238 223 208 217 214 198 202 202 212 210 203 209 212 233 244 259 270 271 281 298 308 319 325 325 326 325 325 325 324 323 325 326 325 323 326 324 320
241 256 239 269 280 243 232 239 227 211 206 211 207 194 191 207 208 203 213 215 225 236 251 265 274 285 302 316 319 313 308 309 312 318 318 321 323 324 325 328 332 338 344 345
246 259 272 260 257 258 245 240 220 217 214 195 189 182 181 191 202 213 223 227 230 240 256 266 274 284 294 298 305 306 307 306 311 305 307 310 311 313 316 321 328 331 340 347
250 231 245 266 268 259 238 194 195 220 212 202 184 182 186 197 214 225 228 223 224 244 258 265 274 285 296 292 296 297 302 303 304 304 305 306 308 311 315 316 321 325 333 341
278 271 256 254 252 247 230 216 218 225 215 208 204 208 209 210 216 220 215 194 208 245 255 254 263 277 283 284 291 289 291 304 313 308 305 309 311 315 318 321 324 329 334 333
246 262 251 255 251 248 237 228 224 221 211 209 214 207 192 190 212 228 233 228 234 247 248 247 261 273 269 269 271 278 289 298 308 308 299 300 304 310 314 316 319 322 323 327
231 241 240 240 244 246 247 238 227 218 212 210 194 181 187 198 218 231 235 240 254 269 259 255 265 272 264 266 269 272 277 282 290 293 298 300 305 307 307 307 311 315 322 329
251 251 251 247 241 234 234 233 228 220 205 185 185 198 207 214 219 222 212 214 232 253 260 258 269 262 257 263 278 265 274 282 288 293 293 303 310 310 309 307 310 313 317 326
259 253 251 254 247 232 231 227 213 209 201 187 188 197 213 222 214 210 214 231 232 236 245 252 251 253 256 260 272 256 263 269 273 282 287 285 287 291 294 298 303 307 310 313
265 260 256 253 258 251 227 208 195 206 205 190 194 206 218 224 213 206 218 248 249 239 243 247 243 249 248 258 264 252 252 260 265 267 273 278 281 283 285 289 294 299 301 303
256 253 255 253 249 256 246 215 203 205 203 205 208 206 208 219 221 228 232 237 241 242 242 236 241 257 265 259 239 245 252 257 260 262 263 266 270 273 276 282 286 291 294 297
251 245 243 241 240 249 253 227 211 209 210 211 211 211 216 222 214 222 249 238 226 235 236 237 256 267 271 249 235 242 252 254 254 256 258 258 260 263 267 273 278 282 285 289
247 242 239 233 215 229 245 246 226 222 222 224 221 214 210 222 238 231 237 234 231 238 240 247 255 263 266 248 241 244 251 254 252 252 255 257 257 259 262 267 274 279 280 284
236 234 228 216 221 232 236 232 223 224 223 232 233 224 215 213 225 233 227 227 232 237 245 247 251 261 259 250 249 252 254 255 256 252 247 253 255 257 260 263 265 269 272 275
228 228 227 227 230 228 218 214 222 224 221 236 244 230 222 221 218 218 223 228 228 235 238 242 247 254 251 251 253 257 259 268 275 268 258 256 254 255 258 262 265 264 267 271
229 231 229 238 236 221 216 217 223 225 219 223 237 226 214 213 214 218 221 226 225 228 234 238 241 244 247 252 258 261 263 264 264 263 260 256 255 255 257 258 260 263 267 269